Joao Soares

Recruteur en chef - Pacos de Ferreira
4 Mars 2027
Jeudi
Processus

Personnalité

Adaptabilité (3) Ambition (9) Controverse (17) Loyauté (7) Pression (10) Professionnalisme (15) Sportivité (15) Tempérament (10)

Profil

Style d'entraînement Démocratique
Diplôme National B
Détermination 10
Gestion des joueurs 11
Motivation 8
Discipline 11
Satisfaction professionnelle
98%
Fatigue
0%
Rôle Recruteur en chef
Salaire 48.1K p/s
Contrat 14.03.2027

Performance

Comportement Bon
Efficacité de l'entraînement
35%
Développement des joueurs
20%
Prévention des blessures
50%
Mise en place tactique
20%

Événements récents

Négociation de contrat entamée maintenant
A participé à une réunion de recrutement maintenant
Négociation de contrat entamée maintenant
A évalué un joueur maintenant
Négociation de contrat entamée 7j
A évalué un joueur 7j
Négociation de contrat entamée 7j
A évalué un joueur 7j

Suivi en cours

188
Joueur Club Statut Capacité Confiance Observé Dernière observation Dernier vote
Afonso Peixoto Felgueiras Actif 94 / 104 40% 2 02.03.2027 -
Kyle Jurgens Maritzburg United Actif 99 / 107 40% 2 02.03.2027 -
Fábio Tavares Newport County Actif 106 / 97 40% 2 02.03.2027 -
Mo Dauda Portimonense Actif 96 / 104 40% 1 02.03.2027 -
Johnly Yfeko Exeter City Actif 118 / 117 40% 3 28.02.2027 -
Argyris Darelas Feirense Actif 93 / 106 40% 1 28.02.2027 -
Charlie Webster Burton Albion Actif 115 / 121 40% 9 27.02.2027 -
Goodman Mosele Chippa United Actif 112 / 115 40% 2 27.02.2027 -
Tiago Manso Kifisia Actif 116 / 108 40% 1 26.02.2027 -
Harry Williams Walsall Actif 97 / 98 40% 1 26.02.2027 -
Rafael Profini Metalist Actif 105 / 116 40% 2 25.02.2027 -
Mateja Milovanović Partizan Actif 103 / 131 40% 1 25.02.2027 -
Bradley Mothiba SuperSport United Actif 96 / 94 40% 1 24.02.2027 -
Jay Matete Milton Keynes Dons Actif 119 / 116 40% 3 22.02.2027 -
Gavin Kilkenny Swindon Town Actif 104 / 103 40% 2 22.02.2027 -
Ayanda Jiyane Golden Arrows Actif 95 / 107 40% 1 21.02.2027 -
Connor Barrett Walsall Actif 103 / 98 40% 3 19.02.2027 -
Lewis Freestone Stevenage Actif 101 / 111 40% 5 19.02.2027 -
Mésaque Djú Portimonense Actif 96 / 103 40% 1 19.02.2027 -
António Eirô Lokomotiv Sofia Actif 103 / 104 40% 1 18.02.2027 -
Daniel Kyerewaa Reading Actif 108 / 106 40% 1 17.02.2027 -
Stefan Tomović Spartak Subotica Actif 110 / 101 40% 1 17.02.2027 -
Thulani Mabaso Platinum Stars Actif 109 / 105 40% 1 15.02.2027 -
Dominik Pleštil Bohemians 1905 Actif 106 / 117 40% 2 14.02.2027 -
Sebastian Nebyla Jablonec Actif 112 / 121 40% 1 14.02.2027 -
Akinkunmi Amoo Ismaily Actif 130 / 120 40% 8 13.02.2027 -
Njegoš Petrović Vojvodina Actif 129 / 125 40% 2 12.02.2027 -
Sinoxolo Kwayiba Chippa United Actif 125 / 101 40% 2 12.02.2027 -
Diego Murillo Málaga Actif 124 / 110 40% 1 10.02.2027 -
Petr Juliš Slovan Liberec Actif 115 / 116 40% 1 10.02.2027 -
Mark Helm Fleetwood Town Actif 108 / 106 40% 1 10.02.2027 -
Baldovino Cimino Cosenza Actif 106 / 117 40% 1 08.02.2027 -
Fezile Gcaba Maritzburg United Actif 92 / 95 40% 2 04.02.2027 -
Ibrahim Tarek Masr El Makasa Actif 128 / 130 40% 5 03.02.2027 -
Luca Connell Barnsley Actif 109 / 118 40% 3 03.02.2027 -
Tiago Ribeiro Oliveirense Actif 101 / 108 40% 1 03.02.2027 -
Vitalii Dakhnovskyi Bukovyna Actif 110 / 116 40% 4 02.02.2027 -
Zlatan Šehović Dukla Prague Actif 118 / 102 40% 1 02.02.2027 -
Darijo Grujčić Wisla Krakow Actif 98 / 120 40% 2 31.01.2027 -
Terry Yegbe Lech Actif 115 / 130 40% 1 30.01.2027 -
Giannis Apostolakis OFI Actif 110 / 123 40% 1 29.01.2027 -
Doğucan Haspolat Westerlo Actif 114 / 128 40% 1 29.01.2027 -
Prestige Mboungou TSC Actif 101 / 101 40% 1 29.01.2027 -
Thulani Phiri Platinum Stars Actif 117 / 100 40% 1 26.01.2027 -
Nikola Stanković Cukaricki Actif 123 / 119 40% 1 26.01.2027 -
Péter Baráth Sigma Olomouc Actif 108 / 110 40% 1 25.01.2027 -
Andrea Ciofi Cesena Actif 119 / 122 40% 1 24.01.2027 -
Dominik Piła Cracovia Actif 111 / 115 40% 1 23.01.2027 -
Šimon Gabriel Slovan Liberec Actif 116 / 120 40% 1 23.01.2027 -
Lebogang Erasmus Platinum Stars Actif 115 / 102 40% 3 22.01.2027 -
Solly Khunyedi Bloemfontein Celtic Actif 92 / 95 40% 1 22.01.2027 -
Lazar Mijović Cukaricki Actif 111 / 103 40% 1 22.01.2027 -
Kyreece Lisbie Colchester United Actif 112 / 116 40% 1 21.01.2027 -
Josué Tiendrébéogo IMT Actif 102 / 105 40% 1 21.01.2027 -
Kai Cipot Veres Actif 109 / 100 40% 1 19.01.2027 -
Milan Roganović Partizan Actif 117 / 105 40% 1 19.01.2027 -
Niklas Vesterlund Utrecht Actif 120 / 113 40% 1 18.01.2027 -
Moha Karpaty Actif 123 / 112 40% 1 17.01.2027 -
Paulo Vitor Akron Actif 114 / 124 40% 1 12.01.2027 -
Ali Soliman Masr El Makasa Refusé 124 / 135 40% 2 11.01.2027 Plus d'infos
Louay Ben Hassine Radnicki 1923 Actif 106 / 116 40% 1 11.01.2027 -
Benjamin Kanurić Admira Wacker Actif 116 / 110 40% 6 07.01.2027 -
Matías Lacava Vizela Actif 117 / 103 40% 1 05.01.2027 -
Artem Slesar Zorya Actif 119 / 111 40% 1 05.01.2027 -
David Pech Mlada Boleslav Actif 110 / 110 40% 1 04.01.2027 -
David Buchta Radnicki 1923 Refusé 121 / 109 40% 2 03.01.2027 Plus d'infos
Juan Bezerra Zamalek Actif 126 / 112 40% 2 02.01.2027 -
Erick Ngcobo Black Aces Actif 99 / 104 40% 4 02.01.2027 -
Adil Taoui Lokomotiv Sofia Actif 109 / 98 40% 1 02.01.2027 -
Braian Álvarez Arsenal Tula Actif 114 / 106 40% 1 31.12.2026 -
Harry Cornick AFC Wimbledon Actif 103 / 107 40% 1 31.12.2026 -
Nicolás Arévalo Metalist Actif 124 / 121 40% 1 30.12.2026 -
Jonathan Sulemana BA All Stars Actif 102 / 112 40% 1 30.12.2026 -
Charles Vernam Grimsby Town Actif 107 / 110 40% 1 28.12.2026 -
Arinaldo Rrapaj Kolos Actif 103 / 114 40% 2 27.12.2026 -
Armando Lopes Felgueiras Actif 110 / 106 40% 1 27.12.2026 -
Lucas Lima Ceará Actif 125 / 105 40% 2 25.12.2026 -
Emi Rodriguez Leon Actif 124 / 124 40% 1 25.12.2026 -
Rui Pedro Chaves Actif 117 / 107 40% 1 25.12.2026 -
Lucho Vega Adana Demirspor Actif 92 / 102 40% 1 23.12.2026 -
Agustín Ramírez Inter Refusé 124 / 98 40% 2 22.12.2026 Plus d'infos
Muharrem Jashari LNZ Refusé 126 / 114 40% 1 22.12.2026 Plus d'infos
Uroš Miladinović Cukaricki Actif 115 / 116 40% 1 21.12.2026 -
Igor Formiga Mirassol Actif 112 / 124 40% 1 21.12.2026 -
Azola Matrose Chippa United Actif 91 / 111 40% 1 20.12.2026 -
Wiktor Długosz Korona Actif 112 / 113 40% 1 20.12.2026 -
Yairo Moreno Helsingborg Actif 103 / 114 40% 2 18.12.2026 -
Filip Zorvan Jablonec Actif 122 / 119 40% 1 18.12.2026 -
Velemseni Ndwandwe Golden Arrows Actif 97 / 104 40% 2 17.12.2026 -
Brian Figueroa Morelia Actif 102 / 108 40% 2 17.12.2026 -
Moustafa Zeidan El Masry Actif 132 / 109 40% 1 16.12.2026 -
Lebogang Zwane Black Aces Actif 94 / 100 40% 3 15.12.2026 -
Kelly Saravanan Salford City Actif 105 / 113 40% 1 15.12.2026 -
Iván Martos IMT Actif 103 / 110 40% 1 15.12.2026 -
Carlos Gutiérrez Montana Actif 110 / 104 40% 1 12.12.2026 -
Lewis Wing Reading Actif 116 / 112 40% 1 09.12.2026 -
Joel Romero America de Cali Actif 105 / 116 40% 2 07.12.2026 -
Rok Stojanovic NK Domzale Refusé 117 / 101 40% 1 07.12.2026 Plus d'infos
Jarleysom Portimonense Refusé 117 / 121 40% 1 07.12.2026 Plus d'infos
Rodin Quiñónes Dinamo Batumi Actif 122 / 101 40% 3 02.12.2026 -
Oscar Garrido Dukla Prague Actif 125 / 112 40% 3 01.12.2026 -
Rafa Soares Estrela da Amadora Actif 122 / 127 40% 1 01.12.2026 -
Stanislav Shopov NK Osijek Actif 125 / 110 40% 1 30.11.2026 -
Jordan Graham Newport County Actif 111 / 112 40% 1 28.11.2026 -
Vinko Rozić Istra 1961 Actif 107 / 114 40% 3 27.11.2026 -
Razvan Puscas Astra Actif 123 / 124 40% 2 27.11.2026 -
Simon Ramabu Polokwane City Actif 119 / 104 40% 1 27.11.2026 -
Franco Vedoya Central Norte Actif 123 / 107 40% 1 25.11.2026 -
Solomon John Mlada Boleslav Actif 125 / 124 40% 1 23.11.2026 -
Wallace Yan Flamengo Actif 124 / 118 40% 2 22.11.2026 -
Gustavo Torres Atletico Nacional Actif 130 / 118 40% 1 22.11.2026 -
Davo Penafiel Actif 111 / 116 40% 2 21.11.2026 -
Heinz Mörschel Vissel Kobe Actif 103 / 119 40% 2 21.11.2026 -
Carlo Adriano Queretaro Actif 103 / 110 40% 2 18.11.2026 -
Kermit Manyama Ajax Cape Town Actif 104 / 110 40% 1 18.11.2026 -
Rafael Barbosa Chaves Actif 114 / 104 40% 1 17.11.2026 -
Kenedy Pachuca Actif 115 / 110 40% 1 17.11.2026 -
Edarlyn Reyes Arsenal Tula Actif 97 / 112 40% 1 16.11.2026 -
Fabián Suárez Chalares Aguilas Doradas Actif 123 / 120 40% 3 15.11.2026 -
Noah Ganaus OB Actif 107 / 109 40% 1 15.11.2026 -
Lucas Evangelista Palmeiras Actif 120 / 125 40% 1 13.11.2026 -
Jhonatan Candia Barracas Central Actif 118 / 122 40% 1 13.11.2026 -
Alejandro Andrade Morelia Actif 114 / 95 40% 1 12.11.2026 -
Filip Szymczak Zaglebie Actif 117 / 114 40% 1 11.11.2026 -
Carlos Gruezo Santos Laguna Actif 131 / 126 40% 1 11.11.2026 -
Jonathan Arteaga Veracruz Actif 115 / 131 40% 1 10.11.2026 -
Aldair Zárate Atletico Bucaramanga Actif 110 / 119 40% 2 07.11.2026 -
Emiliano Marcondes OB Actif 109 / 100 40% 1 06.11.2026 -
Franco Fagúndez Estudiantes Actif 114 / 113 40% 4 05.11.2026 -
Santiago Jiménez Deportivo Pasto Actif 122 / 125 40% 1 05.11.2026 -
Diego Gallegos Morelia Actif 114 / 99 40% 1 05.11.2026 -
Ante Bajić SV Ried Actif 117 / 116 40% 1 03.11.2026 -
Edwar López Deportes Tolima Actif 130 / 127 40% 2 02.11.2026 -
Félix Charrupí Atletico Bucaramanga Actif 114 / 105 40% 2 01.11.2026 -
Yeferson Rodallega Envigado Actif 110 / 106 40% 2 01.11.2026 -
Valentino Aguirre La Equidad Actif 113 / 113 40% 1 01.11.2026 -
David Barbona Defensa y Justicia Actif 114 / 124 40% 4 30.10.2026 -
Abraham Ofori WAFA Actif 112 / 112 40% 2 30.10.2026 -
Lucas Di Yorio Santos Laguna Actif 115 / 118 40% 2 28.10.2026 -
Horacio Tijanovich Central Córdoba SdE Actif 118 / 116 40% 1 26.10.2026 -
Przemysław Płacheta Dukla Prague Actif 129 / 109 40% 1 22.10.2026 -
Bruno José Atletico Goianiense Actif 108 / 111 40% 1 22.10.2026 -
Maximiliano Meléndez Chacarita Juniors Actif 114 / 112 40% 1 21.10.2026 -
Federico Bicoro Gamba Osaka Actif 124 / 117 40% 1 19.10.2026 -
Darlan Mendes Sparta Prague Actif 112 / 119 40% 1 19.10.2026 -
Daniel Arcila Leon Actif 119 / 108 40% 1 18.10.2026 -
Jose Barrios Cortulua Actif 122 / 119 40% 1 18.10.2026 -
Camilo Perez Cortulua Actif 121 / 110 40% 3 15.10.2026 -
Lucio Castillo Colegiales Actif 112 / 107 40% 2 15.10.2026 -
Alberto Soro Dinamo Bucharest Actif 104 / 124 40% 1 14.10.2026 -
Eber Moreno Deportivo Pereira Actif 113 / 123 40% 1 14.10.2026 -
Mateo Zuleta Once Caldas Actif 129 / 119 40% 1 13.10.2026 -
Andrés Colorado Once Caldas Actif 109 / 121 40% 1 11.10.2026 -
Miguel Terceros Santos Actif 113 / 115 40% 1 11.10.2026 -
Mateo Garavito Deportivo Pasto Actif 107 / 125 40% 2 07.10.2026 -
Iñaki Larthirigoyen San Telmo Actif 127 / 120 40% 2 06.10.2026 -
Mateo García Atlas Actif 94 / 99 40% 1 06.10.2026 -
Juan David Rueda Alianza Petrolera Actif 124 / 99 40% 1 01.10.2026 -
Julián Palacios Envigado Actif 121 / 109 40% 1 01.10.2026 -
Nicolás Barrientos All Boys Actif 107 / 122 40% 1 28.09.2026 -
Manuel Gutierrez Veracruz Actif 127 / 119 40% 1 26.09.2026 -
Nduduzo Sibiya Golden Arrows Actif 118 / 121 40% 1 25.09.2026 -
José Florentín Independiente Rivadavia Actif 116 / 129 40% 1 24.09.2026 -
CJ Hamilton Blackpool Actif 102 / 108 40% 1 22.09.2026 -
Paulo Victor Queretaro Actif 119 / 111 40% 1 21.09.2026 -
Xavier Biscayzacú Defensor Sporting Actif 130 / 135 40% 2 16.09.2026 -
Santiago Toloza O'Higgins Actif 114 / 115 40% 1 16.09.2026 -
Federico Versaci Talleres Actif 118 / 112 40% 1 14.09.2026 -
Federico Martínez Liverpool Montevideo Actif 130 / 114 40% 1 12.09.2026 -
Rickelme Sport Recife Actif 71 / 81 40% 1 11.09.2026 -
Nahuel Herrera Penarol Actif 123 / 127 40% 1 11.09.2026 -
Hervin Goyes Deportivo Pasto Actif 116 / 116 40% 1 10.09.2026 -
Lucas Agazzi Defensor Sporting Actif 118 / 118 40% 1 09.09.2026 -
Mamady Cissé Atlético Mineiro Actif 91 / 107 40% 1 09.09.2026 -
Benedetti Palmeiras Actif 98 / 113 40% 1 08.09.2026 -
Juan Giménez Rosario Central Actif 111 / 132 40% 1 08.09.2026 -
Sidney Bahia Actif 84 / 100 40% 1 02.09.2026 -
Gusttavo Flamengo Actif 95 / 77 40% 1 02.09.2026 -
Halam Loboa Independiente Medellin Actif 121 / 135 40% 1 01.09.2026 -
Ezequiel Burdin Defensa y Justicia Actif 109 / 112 40% 1 01.09.2026 -
Samuel Lucero Defensa y Justicia Actif 117 / 125 40% 1 31.08.2026 -
Yílmar Velásquez Santa Fe Actif 107 / 112 40% 1 31.08.2026 -
Da Mata Flamengo Actif 77 / 95 40% 1 10.08.2026 -
Júlio Fidelis Fluminense Actif 92 / 96 40% 1 10.08.2026 -
Nicolás Azambuja Danubio Actif 105 / 124 40% 1 06.08.2026 -
Louback Atlético Mineiro Actif 100 / 84 40% 1 06.08.2026 -
Matheus Pedro Fluminense Actif 67 / 74 40% 1 05.08.2026 -
Tobías Reinhart Universidad de Chile Actif 134 / 129 40% 1 01.08.2026 -